(248435) = 2005 TM22

Discovered at Catalina on 2005-10-01 by CSS.

Orbit

Orbit type: Main Belt

Note: WebGL enabled browser required.

epoch2024-03-31.0
epoch JD2460400.5
perihelion date2022-07-20.96336
perihelion JD2459781.46336
argument of perihelion (°)247.32838
ascending node (°)199.23082
inclination (°)11.27634
eccentricity0.2105331
perihelion distance (AU)2.4129986
Tisserand w.r.t. Jupiter3.2
ΔV w.r.t. Earth (km/sec)10.4
semimajor axis (AU)3.0564911
mean anomaly (°)114.17880
mean daily motion (°/day)0.18444600
aphelion distance (AU)3.700
period (years)5.34
P-vector [x]0.06588435
P-vector [y]0.97216869
P-vector [z]0.22482725
Q-vector [x]-0.99574650
Q-vector [y]0.07859973
Q-vector [z]-0.04807284
absolute magnitude16.04
phase slope0.15
uncertainty0
referenceMPEC 2024-F14
observations used402
oppositions16
arc length (days)8538
first opposition used2000
last opposition used2024
residual rms (arc-secs)0.73
perturbers coarse indicatorM-v
perturbers precise indicator003Ek
first observation date used2000-10-31.0
last observation date used2024-03-17.0
computer nameMPCLINUX
JD of orbit computation2456877.784803
perihelion JD uncertainty (days)1.4584E-04
argument of perihelion uncertainty (°)2.5530E-05
ascending node uncertainty (°)1.6399E-05
inclination uncertainty (°)7.5489E-06
eccentricity uncertainty 5.2619E-08
perihelion distance uncertainty (AU)1.4158E-07
Minimum Orbit Intersection Distances (in AU)
for orbit epoch: 2460400.5, reference: E2024-F14
Mercury2.11633
Venus1.7105
Earth1.45568
Mars0.93355
Jupiter1.74607
Saturn6.42877
Uranus15.3248
Neptune26.7626

Observations

411 total observations over interval: 2000 10 31.30083 – 2024 03 17.640403
These data are available for download (format description).

Date (UT) J2000 RA J2000 Dec Magn Location Ref
2000 10 31.30083 03 24 45.48 +10 14 04.0 19.4   704 – Lincoln Laboratory ETS, New Mexico MPS 343725
2000 10 31.31569 03 24 44.86 +10 13 56.4 19.3   704 – Lincoln Laboratory ETS, New Mexico MPS 343725
2000 10 31.32959 03 24 44.20 +10 13 48.9 19.3   704 – Lincoln Laboratory ETS, New Mexico MPS 343725
2000 10 31.34356 03 24 43.79 +10 13 40.7 19.5   704 – Lincoln Laboratory ETS, New Mexico MPS 343725
2005 09 22.41367 00 45 26.52 +08 48 49.2 19.4 R 644 – Palomar Mountain/NEAT MPS 146230
2005 09 22.43572 00 45 25.66 +08 48 38.7 19.7 R 644 – Palomar Mountain/NEAT MPS 146230
2005 09 22.45825 00 45 24.78 +08 48 28.1 19.7 R 644 – Palomar Mountain/NEAT MPS 146230
2005 09 26.237767 00 42 55.510 +08 18 02.35 20.00 V 645 – Apache Point-Sloan Digital Sky Survey MPS 390415
2005 09 26.241239 00 42 55.383 +08 18 00.75 21.13   645 – Apache Point-Sloan Digital Sky Survey MPS 390415
2005 09 28.277987 00 41 31.699 +08 00 55.82 19.77 V 645 – Apache Point-Sloan Digital Sky Survey MPS 390415
2005 09 28.281459 00 41 31.549 +08 00 54.09 20.60   645 – Apache Point-Sloan Digital Sky Survey MPS 390415
2005 10 01.30456 00 39 24.69 +07 34 49.1 19.7 V 703 – Catalina Sky Survey MPS 144463
2005 10 01.31104 00 39 24.40 +07 34 46.3 19.6 V 703 – Catalina Sky Survey MPS 144463
2005 10 01.31758 00 39 24.19 +07 34 41.4 19.4 V 703 – Catalina Sky Survey MPS 144463
2005 10 01.32410 00 39 23.86 +07 34 39.4 19.3 V 703 – Catalina Sky Survey MPS 144463
2005 10 05.16736 00 36 40.43 +07 00 31.8 19.8 V 691 – Steward Observatory, Kitt Peak-Spacewatch MPS 144463
2005 10 05.18472 00 36 39.68 +07 00 22.3 19.8 V 691 – Steward Observatory, Kitt Peak-Spacewatch MPS 144463
2005 10 05.20206 00 36 38.90 +07 00 12.8 19.8 V 691 – Steward Observatory, Kitt Peak-Spacewatch MPS 144463
2005 10 06.20172 00 35 56.29 +06 51 13.1 19.5 R 699 – Lowell Observatory-LONEOS MPS 144463
2005 10 06.22457 00 35 55.19 +06 50 59.9   699 – Lowell Observatory-LONEOS MPS 144463
2005 10 06.24737 00 35 54.25 +06 50 48.6   699 – Lowell Observatory-LONEOS MPS 144463
2005 10 06.27020 00 35 53.23 +06 50 35.4   699 – Lowell Observatory-LONEOS MPS 144463
2005 10 07.27707 00 35 10.32 +06 41 28.2 19.9 V 703 – Catalina Sky Survey MPS 144463
2005 10 07.28406 00 35 09.99 +06 41 26.6 19.5 V 703 – Catalina Sky Survey MPS 144463
2005 10 07.29109 00 35 09.74 +06 41 21.5 19.4 V 703 – Catalina Sky Survey MPS 144463
2005 10 07.29809 00 35 09.45 +06 41 17.8 19.4 V 703 – Catalina Sky Survey MPS 144463
2005 10 07.30749 00 35 08.95 +06 41 12.5 19.6 V 703 – Catalina Sky Survey MPS 144463
2005 10 07.31575 00 35 08.59 +06 41 08.4 19.0 V 703 – Catalina Sky Survey MPS 144463
2005 10 07.32399 00 35 08.26 +06 41 04.9 19.2 V 703 – Catalina Sky Survey MPS 144463
2005 10 07.33237 00 35 07.80 +06 40 59.1 19.2 V 703 – Catalina Sky Survey MPS 144463
2005 10 10.13284 00 33 09.88 +06 15 33.8 20.1 V 691 – Steward Observatory, Kitt Peak-Spacewatch MPS 144463
2005 10 10.13463 00 33 09.86 +06 15 33.3 20.7 V 291 – LPL/Spacewatch II MPS 144463
2005 10 10.13910 00 33 09.62 +06 15 30.5 20.3 V 291 – LPL/Spacewatch II MPS 144463
2005 10 10.14292 00 33 09.48 +06 15 28.5 20.2 V 291 – LPL/Spacewatch II MPS 144463
2005 10 10.15022 00 33 09.14 +06 15 24.3 19.8 V 691 – Steward Observatory, Kitt Peak-Spacewatch MPS 144463
2005 10 10.16764 00 33 08.39 +06 15 14.9 19.8 V 691 – Steward Observatory, Kitt Peak-Spacewatch MPS 144463
2005 10 27.23119 00 22 40.26 +03 46 38.2 20.1 V G96 – Mt. Lemmon Survey MPS 146230
2005 10 27.23866 00 22 40.00 +03 46 34.7 20.0 V G96 – Mt. Lemmon Survey MPS 146230
2005 10 27.24630 00 22 39.79 +03 46 30.9 20.1 V G96 – Mt. Lemmon Survey MPS 146230
2005 10 27.25395 00 22 39.54 +03 46 27.1 20.1 V G96 – Mt. Lemmon Survey MPS 146230
2005 11 24.235117 00 17 32.780 +01 09 38.82 20.78 V 645 – Apache Point-Sloan Digital Sky Survey MPS 390415
2005 11 24.23549 00 17 32.78 +01 09 38.8 21.4   705 – Apache Point MPS 211805
2005 11 24.238589 00 17 32.805 +01 09 38.19 21.49   645 – Apache Point-Sloan Digital Sky Survey MPS 390415
2005 11 24.23881 00 17 32.80 +01 09 38.1 20.8 V 705 – Apache Point MPS 211805
2005 11 25.21509 00 17 42.46 +01 06 51.5 20.6 V G96 – Mt. Lemmon Survey MPS 152178
2005 11 25.22101 00 17 42.50 +01 06 50.4 20.7 V G96 – Mt. Lemmon Survey MPS 152178
2005 11 25.22674 00 17 42.54 +01 06 49.5 20.5 V G96 – Mt. Lemmon Survey MPS 152178
2005 11 25.23272 00 17 42.61 +01 06 48.9 20.3 V G96 – Mt. Lemmon Survey MPS 152178
2005 11 25.25906 00 17 42.86 +01 06 44.9 21.3   705 – Apache Point MPS 211805
2005 11 25.26238 00 17 42.89 +01 06 44.3 20.7 V 705 – Apache Point MPS 211805
2005 12 01.223277 00 19 12.013 +00 53 59.49 20.78 V 645 – Apache Point-Sloan Digital Sky Survey MPS 390415
2005 12 01.22365 00 19 12.01 +00 53 59.4 21.1   705 – Apache Point MPS 211805
2005 12 01.22448 00 19 12.03 +00 53 59.4 20.7 V 705 – Apache Point MPS 211805
2005 12 01.226749 00 19 12.077 +00 53 59.20 21.59   645 – Apache Point-Sloan Digital Sky Survey MPS 390415
2005 12 04.11515 00 20 13.66 +00 50 18.8 20.6 V G96 – Mt. Lemmon Survey MPS 153735
2005 12 04.12174 00 20 13.81 +00 50 18.2 20.6 V G96 – Mt. Lemmon Survey MPS 153735
2005 12 04.12832 00 20 13.95 +00 50 17.8 20.1 V G96 – Mt. Lemmon Survey MPS 153735
2005 12 04.13493 00 20 14.13 +00 50 17.1 21.0 V G96 – Mt. Lemmon Survey MPS 153735
2007 01 28.38630 09 54 48.60 -03 05 30.6 19.6 V 703 – Catalina Sky Survey MPS 201529
2007 01 28.39231 09 54 48.45 -03 05 31.3 19.3 V 703 – Catalina Sky Survey MPS 201529
2007 01 28.39833 09 54 48.06 -03 05 30.8 19.5 V 703 – Catalina Sky Survey MPS 201529
2007 01 28.40436 09 54 47.88 -03 05 28.5 20.2 V 703 – Catalina Sky Survey MPS 201529
2007 02 23.24392 09 35 42.25 -00 28 29.0 19.2 V 703 – Catalina Sky Survey MPS 201529
2007 02 23.25213 09 35 41.89 -00 28 24.5 19.8 V 703 – Catalina Sky Survey MPS 201529
2007 02 23.26030 09 35 41.46 -00 28 21.1 19.6 V 703 – Catalina Sky Survey MPS 201529
2007 02 23.26847 09 35 41.20 -00 28 15.0 19.5 V 703 – Catalina Sky Survey MPS 201529
2007 02 25.20041 09 34 20.53 -00 12 55.2 18.1 R G92 – Jarnac Observatory, Vail MPS 201529
2007 02 25.22985 09 34 19.33 -00 12 41.2 18.8 R G92 – Jarnac Observatory, Vail MPS 201529
2007 02 25.25931 09 34 18.04 -00 12 26.9 18.6 R G92 – Jarnac Observatory, Vail MPS 201529
2008 04 11.37891 15 20 42.39 -12 18 10.0 20.8 V 691 – Steward Observatory, Kitt Peak-Spacewatch MPS 246769
2008 04 11.39654 15 20 41.78 -12 18 04.8 21.6 V 691 – Steward Observatory, Kitt Peak-Spacewatch MPS 246769
2008 04 11.41415 15 20 41.17 -12 17 58.5 21.6 V 691 – Steward Observatory, Kitt Peak-Spacewatch MPS 246769
2008 04 29.36429 15 08 53.80 -10 39 34.2 20.7 V G96 – Mt. Lemmon Survey MPS 248152
2008 04 29.37004 15 08 53.55 -10 39 32.3 20.8 V G96 – Mt. Lemmon Survey MPS 248152
2008 04 29.37590 15 08 53.30 -10 39 29.9 20.9 V G96 – Mt. Lemmon Survey MPS 248152
2008 04 29.38166 15 08 53.01 -10 39 28.0 21.0 V G96 – Mt. Lemmon Survey MPS 248152
2008 05 29.23985 14 47 49.09 -08 18 00.4 21.2 V G96 – Mt. Lemmon Survey MPS 250433
2008 05 29.24647 14 47 48.84 -08 17 58.9 21.3 V G96 – Mt. Lemmon Survey MPS 250433
2008 05 29.25300 14 47 48.62 -08 17 57.3 21.1 V G96 – Mt. Lemmon Survey MPS 250433
2008 05 29.25957 14 47 48.37 -08 17 55.8 21.2 V G96 – Mt. Lemmon Survey MPS 250433
2010 08 08.04405 22 57 56.17 +05 09 00.9 20.5   A77 – Observatoire Chante-Perdrix, Dauban MPS 343725
2010 08 08.06441 22 57 55.51 +05 08 58.3 21.1   A77 – Observatoire Chante-Perdrix, Dauban MPS 343725
2010 08 08.08477 22 57 54.99 +05 08 55.3 20.7   A77 – Observatoire Chante-Perdrix, Dauban MPS 343725
2010 08 09.05122 22 57 27.19 +05 06 09.5 20.6   A77 – Observatoire Chante-Perdrix, Dauban MPS 343725
2010 08 09.07540 22 57 26.42 +05 06 05.3 20.3   A77 – Observatoire Chante-Perdrix, Dauban MPS 343725
2010 08 09.09962 22 57 25.72 +05 06 01.3 20.4   A77 – Observatoire Chante-Perdrix, Dauban MPS 343725
2010 09 02.31955 22 42 05.58 +03 06 15.2 20.1 V G96 – Mt. Lemmon Survey MPS 347042
2010 09 02.32590 22 42 05.29 +03 06 12.6 20.1 V G96 – Mt. Lemmon Survey MPS 347042
2010 09 02.33221 22 42 05.00 +03 06 10.1 20.3 V G96 – Mt. Lemmon Survey MPS 347042
2010 09 02.33856 22 42 04.71 +03 06 07.5 20.3 V G96 – Mt. Lemmon Survey MPS 347042
2010 09 15.29495 22 32 54.27 +01 32 25.8 20.1 V G96 – Mt. Lemmon Survey MPS 349340
